Location: Newark
(35.0033°N, 81.0878°W)
Time: 13:22:55
(UTC+00:00)

Envisat - Pass Details

Date: 10 August 2021
Orbit: 764 x 766 km, 98.2° (Epoch: 20 September)

Event Time Altitude Azimuth Distance (km) Brightness Sun altitude
Rises 09:13:24 0° 39° (NE) 3,234 7.7 -16.8°
Reaches altitude 10° 09:17:39 10° 74° (ENE) 2,301 6.7 -16.1°
Maximum altitude 09:19:07 11° 91° (E) 2,216 6.2 -15.9°
Drops below altitude 10° 09:20:36 10° 108° (ESE) 2,297 6.0 -15.6°
Sets 09:24:48 0° 142° (SE) 3,215 6.3 -14.9°
